FW9769 Weather Reports


time (UTC)temp
F
wind
direction
speed
knots
gust
knots
rain 1hr
in
rain 24hr
in
rain mn
in
humidity
%
barometer
mb
20260902195234 92 189 0.9 2.6 0.00 0.00 0.00 60 1018.1
20260902194734 93 164 0.0 2.6 0.00 0.00 0.00 60 1018.2
20260902194229 93 197 0.0 2.6 0.00 0.00 0.00 60 1018.1
20260902193725 92 97 0.9 2.6 0.00 0.00 0.00 59 1018.1
20260902193220 92 199 1.7 2.6 0.00 0.00 0.00 61 1018.2
20260902192719 92 180 0.9 2.6 0.00 0.00 0.00 59 1018.2
20260902192218 93 295 0.0 5.2 0.00 0.00 0.00 59 1018.3
20260902191718 92 175 0.0 2.6 0.00 0.00 0.00 58 1018.4
20260902191213 91 188 1.7 3.5 0.00 0.00 0.00 59 1018.5
20260902190709 92 241 1.7 3.5 0.00 0.00 0.00 60 1018.3
20260902190208 92 213 1.7 2.6 0.00 0.00 0.00 59 1018.5
20260902185704 92 197 2.6 3.5 0.00 0.00 0.00 59 1018.6
20260902185202 91 222 1.7 1.7 0.00 0.00 0.00 64 1018.8
20260902184655 91 267 1.7 2.6 0.00 0.00 0.00 61 1018.7
20260902184151 91 196 1.7 3.5 0.00 0.00 0.00 59 1018.6
20260902183646 91 296 0.9 2.6 0.00 0.00 0.00 63 1018.6
20260902183143 91 254 1.7 3.5 0.00 0.00 0.00 64 1018.8
20260902182639 91 192 2.6 2.6 0.00 0.00 0.00 62 1018.7
20260902182135 90 229 0.0 3.5 0.00 0.00 0.00 66 1018.8
20260902181631 90 163 1.7 3.5 0.00 0.00 0.00 66 1018.8
20260902181130 91 121 0.0 3.5 0.00 0.00 0.00 63 1018.9
20260902180630 91 216 1.7 1.7 0.00 0.00 0.00 62 1018.8
20260902180126 90 209 1.7 1.7 0.00 0.00 0.00 65 1018.8
20260902175626 90 246 1.7 1.7 0.00 0.00 0.00 65 1018.9
20260902175121 90 268 1.7 3.5 0.00 0.00 0.00 64 1018.9
20260902174618 90 279 1.7 1.7 0.00 0.00 0.00 65 1019.0
20260902174113 90 206 1.7 3.5 0.00 0.00 0.00 66 1019.1
20260902173608 90 165 0.0 1.7 0.00 0.00 0.00 64 1019.0
20260902173103 89 152 0.0 2.6 0.00 0.00 0.00 69 1019.2
20260902172603 89 294 1.7 1.7 0.00 0.00 0.00 66 1019.2
20260902172057 89 278 0.9 1.7 0.00 0.00 0.00 68 1019.3
20260902171553 89 262 1.7 2.6 0.00 0.00 0.00 65 1019.4
20260902171049 89 271 3.5 3.5 0.00 0.00 0.00 64 1019.4
20260902170544 89 290 0.0 3.5 0.00 0.00 0.00 65 1019.4
20260902170040 89 167 0.0 1.7 0.00 0.00 0.00 66 1019.4
20260902165539 89 212 0.0 3.5 0.00 0.00 0.00 66 1019.5
20260902165039 89 207 0.0 2.6 0.00 0.00 0.00 65 1019.6
20260902164535 89 291 2.6 2.6 0.00 0.00 0.00 68 1019.4
20260902164033 89 117 1.7 3.5 0.00 0.00 0.00 71 1019.4
20260902163530 89 242 1.7 2.6 0.00 0.00 0.00 72 1019.5
20260902163028 89 197 1.7 1.7 0.00 0.00 0.00 70 1019.5
20260902162527 89 252 1.7 2.6 0.00 0.00 0.00 72 1019.5
20260902162023 88 226 0.9 1.7 0.00 0.00 0.00 69 1019.6
20260902161518 88 239 1.7 3.5 0.00 0.00 0.00 67 1019.6
20260902161013 89 204 1.7 1.7 0.00 0.00 0.00 67 1019.4
20260902160509 89 207 0.9 1.7 0.00 0.00 0.00 69 1019.5
20260902160010 89 265 0.0 1.7 0.00 0.00 0.00 70 1019.6
20260902155502 88 254 0.0 3.5 0.00 0.00 0.00 69 1019.5
20260902155001 88 241 2.6 2.6 0.00 0.00 0.00 69 1019.4
20260902154456 88 217 0.0 3.5 0.00 0.00 0.00 69 1019.3
20260902153951 87 199 1.7 3.5 0.00 0.00 0.00 69 1019.5
20260902153449 87 220 0.9 1.7 0.00 0.00 0.00 71 1019.5
20260902152945 88 307 2.6 3.5 0.00 0.00 0.00 68 1019.5
20260902152441 89 227 0.0 2.6 0.00 0.00 0.00 69 1019.6
20260902151937 90 222 0.9 1.7 0.00 0.00 0.00 67 1019.7
20260902151433 89 214 1.7 2.6 0.00 0.00 0.00 66 1019.5
20260902150932 90 258 0.9 1.7 0.00 0.00 0.00 68 1019.5
20260902150429 91 243 1.7 1.7 0.00 0.00 0.00 65 1019.4
20260902145928 91 185 0.0 1.7 0.00 0.00 0.00 65 1019.7
20260902145423 90 218 0.0 2.6 0.00 0.00 0.00 69 1019.6
20260902144918 89 203 1.7 2.6 0.00 0.00 0.00 67 1019.8
20260902144414 89 264 0.0 1.7 0.00 0.00 0.00 70 1019.7
20260902143914 88 207 0.9 2.6 0.00 0.00 0.00 68 1019.6
20260902143409 89 192 0.0 1.7 0.00 0.00 0.00 67 1019.7
20260902142904 90 262 0.9 1.7 0.00 0.00 0.00 70 1019.7
20260902142401 89 212 0.9 1.7 0.00 0.00 0.00 71 1019.7
20260902141856 89 240 0.9 1.7 0.00 0.00 0.00 69 1019.7
20260902141351 88 234 1.7 1.7 0.00 0.00 0.00 70 1019.7
20260902140850 88 242 0.0 0.9 0.00 0.00 0.00 71 1019.7
20260902140346 86 220 1.7 1.7 0.00 0.00 0.00 71 1019.4
20260902135845 87 220 0.9 1.7 0.00 0.00 0.00 71 1019.6
20260902135342 85 301 0.9 1.7 0.00 0.00 0.00 76 1019.5
20260902134840 85 303 1.7 1.7 0.00 0.00 0.00 75 1019.7
20260902134336 85 219 1.7 1.7 0.00 0.00 0.00 74 1019.6
20260902133831 85 211 0.9 1.7 0.00 0.00 0.00 74 1019.6
20260902133331 84 211 1.7 1.7 0.00 0.00 0.00 75 1019.6
20260902132826 83 241 1.7 1.7 0.00 0.00 0.00 77 1019.5
20260902132321 82 249 0.9 1.7 0.00 0.00 0.00 78 1019.6
20260902131817 80 231 0.0 3.5 0.00 0.00 0.00 82 1019.6
20260902131314 79 271 0.9 1.7 0.00 0.00 0.00 86 1019.7
20260902130813 78 225 0.9 1.7 0.00 0.00 0.00 86 1019.6
20260902130309 78 246 0.0 1.7 0.00 0.00 0.00 87 1019.6
20260902125804 77 306 0.9 1.7 0.00 0.00 0.00 91 1019.7
20260902125300 75 246 0.0 0.9 0.00 0.00 0.00 91 1019.6
20260902124756 74 183 0.9 1.7 0.00 0.00 0.00 94 1019.6
20260902124252 73 302 0.0 1.7 0.00 0.00 0.00 95 1019.5
20260902123752 73 269 0.0 1.7 0.00 0.00 0.00 97 1019.7
20260902123248 73 241 0.9 0.9 0.00 0.00 0.00 98 1019.6
20260902122746 72 180 0.0 0.9 0.00 0.00 0.00 99 1019.6
20260902122243 72 224 0.9 1.7 0.00 0.00 0.00 99 1019.5
20260902121742 72 237 0.0 1.7 0.00 0.00 0.00 99 1019.5
20260902121237 71 269 0.0 0.9 0.00 0.00 0.00 99 1019.5
20260902120733 71 242 0.0 0.0 0.00 0.00 0.00 99 1019.3
20260902120230 71 184 0.0 0.9 0.00 0.00 0.00 99 1019.2
20260902115730 71 195 0.0 0.0 0.00 0.00 0.00 99 1019.3
20260902115226 71 269 0.0 0.0 0.00 0.00 0.00 99 1019.2
20260902114722 71 242 0.0 1.7 0.00 0.00 0.00 99 1019.3
20260902114218 71 18 0.0 0.9 0.00 0.00 0.00 99 1019.1
20260902113718 70 89 0.0 0.9 0.00 0.00 0.00 99 1019.1
20260902113213 70 158 1.7 1.7 0.00 0.00 0.00 99 1019.1
20260902112712 70 165 0.0 0.9 0.00 0.00 0.00 99 1019.0
20260902112210 70 309 0.0 0.9 0.00 0.00 0.00 99 1018.9
20260902111705 70 66 0.0 0.9 0.00 0.00 0.00 99 1018.9
20260902111201 70 113 0.0 0.9 0.00 0.00 0.00 99 1018.7
20260902110656 70 124 0.0 0.9 0.00 0.00 0.00 99 1018.8
20260902110152 71 202 0.0 1.7 0.00 0.00 0.00 99 1018.9
20260902105652 71 124 0.0 1.7 0.00 0.00 0.00 99 1018.6
20260902105147 71 173 0.9 0.9 0.00 0.00 0.00 98 1018.7
20260902104642 71 154 0.0 1.7 0.00 0.00 0.00 98 1018.6
20260902104138 71 18 0.0 1.7 0.00 0.00 0.00 98 1018.7
20260902103637 71 9 0.9 0.9 0.00 0.00 0.00 98 1018.7
20260902103132 71 163 0.9 1.7 0.00 0.00 0.00 98 1018.8
20260902102628 71 97 0.9 0.9 0.00 0.00 0.00 98 1018.7
20260902102126 71 145 0.0 1.7 0.00 0.00 0.00 98 1018.7
20260902101621 71 269 0.0 0.9 0.00 0.00 0.00 98 1018.7
20260902101120 71 112 0.0 0.9 0.00 0.00 0.00 98 1018.7
20260902100615 71 169 0.0 1.7 0.00 0.00 0.00 98 1018.7
20260902100110 71 46 0.9 1.7 0.00 0.00 0.00 98 1018.5
20260902095609 71 165 0.9 1.7 0.00 0.00 0.00 98 1018.7
20260902095108 71 182 0.9 0.9 0.00 0.00 0.00 98 1018.6
20260902094604 71 80 0.0 1.7 0.00 0.00 0.00 98 1018.5
20260902094100 71 269 0.0 0.9 0.00 0.00 0.00 98 1018.5
20260902093559 71 195 0.0 0.9 0.00 0.00 0.00 98 1018.6
20260902093055 71 50 0.0 0.0 0.00 0.00 0.00 98 1018.6
20260902092554 71 199 0.9 1.7 0.00 0.00 0.00 98 1018.4
20260902092050 71 324 0.0 1.7 0.00 0.00 0.00 98 1018.5
20260902091545 71 212 0.0 0.0 0.00 0.00 0.00 98 1018.5
20260902091041 71 147 0.0 0.9 0.00 0.00 0.00 98 1018.4
20260902090537 71 77 0.0 0.9 0.00 0.00 0.00 98 1018.5
20260902090036 71 197 0.0 1.7 0.00 0.00 0.00 97 1018.5
20260902085530 71 142 0.0 1.7 0.00 0.00 0.00 97 1018.5
20260902085026 71 252 0.0 0.9 0.00 0.00 0.00 97 1018.4
20260902084522 71 120 0.9 1.7 0.00 0.00 0.00 97 1018.4
20260902084017 71 54 0.0 0.9 0.00 0.00 0.00 97 1018.4
20260902083512 71 173 0.0 0.0 0.00 0.00 0.00 97 1018.3
20260902083007 72 129 0.0 0.0 0.00 0.00 0.00 97 1018.3
20260902082502 72 129 0.0 0.0 0.00 0.00 0.00 97 1018.1
20260902081959 72 119 0.0 0.0 0.00 0.00 0.00 97 1018.1
20260902081456 72 124 0.0 0.0 0.00 0.00 0.00 97 1017.9
20260902080955 72 117 0.0 0.0 0.00 0.00 0.00 98 1018.1
20260902080451 72 117 0.0 0.0 0.00 0.00 0.00 98 1017.9
20260902075950 72 126 0.0 0.0 0.00 0.00 0.00 98 1018.1
20260902075447 72 129 0.0 0.0 0.00 0.00 0.00 98 1018.0
20260902074942 72 129 0.0 0.0 0.00 0.00 0.00 98 1017.9
20260902074437 72 134 0.0 0.0 0.00 0.00 0.00 98 1017.8
20260902073932 72 217 0.0 0.0 0.00 0.00 0.00 98 1017.9
20260902073429 72 142 0.0 0.0 0.00 0.00 0.00 98 1018.0
20260902072924 72 129 0.0 0.0 0.00 0.00 0.00 98 1018.0
20260902072420 72 235 0.0 0.0 0.00 0.00 0.00 97 1018.1
20260902071916 72 217 0.0 0.0 0.00 0.00 0.00 97 1017.8
20260902071416 72 212 0.0 0.0 0.00 0.00 0.00 97 1018.0
20260902070912 72 129 0.0 0.0 0.00 0.00 0.00 97 1017.9
20260902070408 72 230 0.0 0.0 0.00 0.00 0.00 97 1018.1
20260902065906 72 230 0.0 0.0 0.00 0.00 0.00 97 1018.1
20260902065401 72 217 0.0 0.0 0.00 0.00 0.00 97 1017.9
20260902064857 72 217 0.0 0.0 0.00 0.00 0.00 97 1017.9
20260902064353 72 217 0.0 0.0 0.00 0.00 0.00 96 1018.0
20260902063848 73 230 0.0 0.0 0.00 0.00 0.00 96 1017.9
20260902063348 73 142 0.0 0.0 0.00 0.00 0.00 96 1018.0
20260902062848 73 242 0.0 0.0 0.00 0.00 0.00 96 1018.1
20260902062348 73 242 0.0 0.0 0.00 0.00 0.00 96 1018.0
20260902061847 73 242 0.0 0.0 0.00 0.00 0.00 96 1018.0
20260902061343 73 124 0.0 0.0 0.00 0.00 0.00 96 1018.1
20260902060839 73 22 0.0 0.0 0.00 0.00 0.00 96 1018.1
20260902060334 73 22 0.0 0.0 0.00 0.00 0.00 95 1018.2
20260902055830 73 22 0.0 0.0 0.00 0.00 0.00 95 1018.2
20260902055326 73 142 0.0 0.0 0.00 0.00 0.00 95 1018.3
20260902054821 73 142 0.0 0.0 0.00 0.00 0.00 95 1018.3
20260902054317 73 142 0.0 0.0 0.00 0.00 0.00 95 1018.2
20260902053812 73 142 0.0 0.0 0.00 0.00 0.00 94 1018.2
20260902053307 73 142 0.0 0.0 0.00 0.00 0.00 94 1018.2
20260902052806 73 154 0.0 0.0 0.00 0.00 0.00 94 1018.2
20260902052306 74 154 0.0 0.0 0.00 0.00 0.00 94 1018.3
20260902051756 74 180 0.0 0.0 0.00 0.00 0.00 94 1018.3
20260902051255 74 113 0.0 0.0 0.00 0.00 0.00 93 1018.4
20260902050750 74 129 0.0 0.0 0.00 0.00 0.00 93 1018.2
20260902050245 74 141 0.0 0.0 0.00 0.00 0.00 94 1018.2
20260902045745 74 135 0.0 0.0 0.00 0.00 0.00 93 1018.1
20260902045241 74 135 0.0 0.0 0.00 0.00 0.00 93 1018.0
20260902044737 74 205 0.0 0.0 0.00 0.00 0.00 93 1018.1
20260902044232 74 205 0.0 0.0 0.00 0.00 0.00 93 1018.3
20260902043727 74 129 0.0 1.7 0.00 0.00 0.00 93 1018.2
20260902043223 74 33 0.0 0.0 0.00 0.00 0.00 93 1018.3
20260902042722 74 142 0.0 0.0 0.00 0.00 0.00 93 1018.3
20260902042217 74 142 0.0 0.0 0.00 0.00 0.00 93 1018.2
20260902041712 74 142 0.0 0.0 0.00 0.00 0.00 94 1018.3
20260902041207 74 142 0.0 0.0 0.00 0.00 0.00 93 1018.2
20260902040706 75 117 0.0 0.0 0.00 0.00 0.00 93 1018.2
20260902040202 75 129 0.0 0.0 0.00 0.00 0.00 93 1018.2
20260902035700 75 103 0.0 0.0 0.00 0.00 0.00 93 1018.2
20260902035155 75 116 0.0 0.9 0.00 0.00 0.00 93 1018.2
20260902034654 75 134 0.9 0.9 0.00 0.00 0.00 93 1018.2
20260902034154 75 104 0.0 0.0 0.00 0.00 0.00 93 1018.1
20260902033653 75 129 0.0 0.9 0.00 0.00 0.00 92 1018.2
20260902033148 75 142 0.0 0.9 0.00 0.00 0.00 92 1018.2
20260902032647 75 147 0.0 0.0 0.00 0.00 0.00 92 1018.0
20260902032142 75 154 0.0 0.9 0.00 0.00 0.00 92 1018.3
20260902031642 75 117 0.0 0.0 0.00 0.00 0.00 91 1018.2
20260902031138 75 142 0.0 0.0 0.00 0.00 0.00 92 1018.1
20260902030633 76 205 0.0 0.0 0.00 0.00 0.00 92 1018.3
20260902030132 76 117 0.0 0.0 0.00 0.00 0.00 91 1018.2
20260902025632 76 117 0.0 0.9 0.00 0.00 0.00 91 1018.4
20260902025128 76 135 0.0 0.0 0.00 0.00 0.00 91 1018.2
20260902024624 76 117 0.0 0.0 0.00 0.00 0.00 92 1018.3
20260902024123 76 217 0.0 0.0 0.00 0.00 0.00 91 1018.5
20260902023620 76 217 0.0 0.0 0.00 0.00 0.00 91 1018.3
20260902023114 76 154 0.0 0.0 0.00 0.00 0.00 91 1018.1
20260902022614 76 224 0.0 0.0 0.00 0.00 0.00 91 1018.2
20260902022110 76 142 0.0 0.0 0.00 0.00 0.00 91 1018.3
20260902021604 77 135 0.0 0.0 0.00 0.00 0.00 91 1018.3
20260902021059 77 164 0.0 0.0 0.00 0.00 0.00 91 1018.3
20260902020555 77 154 0.0 0.0 0.00 0.00 0.00 90 1018.2
20260902020051 77 113 0.0 0.0 0.00 0.00 0.00 90 1018.2
20260902015547 77 113 0.0 0.0 0.00 0.00 0.00 90 1018.3
20260902015042 77 135 0.0 0.9 0.00 0.00 0.00 90 1018.1
20260902014538 77 154 0.0 0.9 0.00 0.00 0.00 90 1018.1
20260902014033 77 129 0.0 0.9 0.00 0.00 0.00 89 1018.2
20260902013533 77 129 0.0 0.0 0.00 0.00 0.00 89 1018.2
20260902013029 77 147 0.0 0.9 0.00 0.00 0.00 90 1018.1
20260902012524 77 104 0.0 0.9 0.00 0.00 0.00 90 1018.2
20260902012020 77 129 0.0 0.9 0.00 0.00 0.00 90 1018.1
20260902011515 77 152 0.0 0.9 0.00 0.00 0.00 89 1018.2
20260902011014 78 120 0.0 0.9 0.00 0.00 0.00 89 1018.1
20260902010514 78 129 0.0 0.9 0.00 0.00 0.00 90 1018.1
20260902010010 78 129 0.0 0.9 0.00 0.00 0.00 90 1017.9
20260902005508 78 117 0.0 0.0 0.00 0.00 0.00 89 1017.9
20260902005004 78 117 0.0 0.0 0.00 0.00 0.00 90 1017.8
20260902004503 78 131 0.0 0.9 0.00 0.00 0.00 88 1017.9
20260902003959 78 141 0.0 0.9 0.00 0.00 0.00 88 1017.8
20260902003454 79 135 0.0 0.9 0.00 0.00 0.00 88 1018.0
20260902002949 79 136 0.9 0.9 0.00 0.00 0.00 87 1017.7
20260902002444 79 117 0.0 0.9 0.00 0.00 0.00 87 1017.8
20260902001944 79 129 0.0 0.0 0.00 0.00 0.00 86 1017.9
20260902001439 80 129 0.0 0.0 0.00 0.00 0.00 87 1017.7
20260902000934 80 129 0.0 0.0 0.00 0.00 0.00 87 1017.7
20260902000429 80 142 0.0 0.0 0.00 0.00 0.00 86 1017.7
20260901235924 81 129 0.0 0.0 0.00 0.00 0.00 86 1017.9
20260901235419 81 138 0.0 0.0 0.00 0.00 0.00 85 1017.8
20260901234914 82 142 0.0 0.0 0.00 0.00 0.00 84 1017.7
20260901234408 82 119 0.0 0.9 0.00 0.00 0.00 84 1017.9
20260901233903 83 129 0.0 0.9 0.00 0.00 0.00 82 1017.9
20260901233358 84 142 0.0 0.0 0.00 0.00 0.00 81 1017.9
20260901232854 84 157 0.0 0.9 0.00 0.00 0.00 81 1017.8
20260901232348 84 205 0.0 0.0 0.00 0.00 0.00 78 1018.0
20260901231844 85 154 0.0 0.9 0.00 0.00 0.00 76 1018.0
20260901231340 85 126 0.0 0.9 0.00 0.00 0.00 76 1018.1
20260901230837 86 255 0.0 0.9 0.00 0.00 0.00 77 1018.1
20260901230336 86 215 0.9 1.7 0.00 0.00 0.00 71 1017.9
20260901225832 86 178 0.0 0.9 0.00 0.00 0.00 73 1018.1
20260901225331 87 230 0.0 0.0 0.00 0.00 0.00 72 1017.9
20260901224826 87 240 0.0 0.9 0.00 0.00 0.00 70 1018.0
20260901224323 87 217 0.0 0.9 0.00 0.00 0.00 69 1018.0
20260901223819 87 197 0.0 1.7 0.00 0.00 0.00 69 1018.0
20260901223314 87 230 0.0 0.9 0.00 0.00 0.00 70 1018.0
20260901222809 87 217 0.0 1.7 0.00 0.00 0.00 69 1018.1
20260901222306 88 217 0.0 1.7 0.00 0.00 0.00 67 1018.2
20260901221801 88 212 0.0 1.7 0.00 0.00 0.00 69 1018.0
20260901221256 88 217 0.0 0.9 0.00 0.00 0.00 68 1018.1
20260901220756 88 147 0.0 1.7 0.00 0.00 0.00 68 1018.1
20260901220256 89 244 0.0 1.7 0.00 0.00 0.00 67 1018.0
20260901215755 89 197 0.0 1.7 0.00 0.00 0.00 67 1018.0
20260901215254 89 269 0.0 1.7 0.00 0.00 0.00 67 1018.1
20260901214752 89 219 1.7 1.7 0.00 0.00 0.00 63 1017.9
20260901214252 89 225 0.9 1.7 0.00 0.00 0.00 63 1017.9
20260901213747 90 195 0.0 1.7 0.00 0.00 0.00 62 1018.0
20260901213246 90 266 1.7 2.6 0.00 0.00 0.00 65 1018.1
20260901212746 91 252 0.0 1.7 0.00 0.00 0.00 65 1018.0
20260901212242 91 222 1.7 1.7 0.00 0.00 0.00 64 1017.9
20260901211737 91 216 1.7 2.6 0.00 0.00 0.00 60 1018.1
20260901211233 92 196 0.9 2.6 0.00 0.00 0.00 60 1018.1
20260901210729 93 266 1.7 1.7 0.00 0.00 0.00 60 1018.0
20260901210225 95 224 1.7 1.7 0.00 0.00 0.00 60 1017.9
20260901205721 94 235 1.7 3.5 0.00 0.00 0.00 57 1018.2
20260901205220 94 202 1.7 1.7 0.00 0.00 0.00 56 1018.2
20260901204716 95 181 0.0 2.6 0.00 0.00 0.00 56 1018.1
20260901204212 95 292 1.7 2.6 0.00 0.00 0.00 57 1018.2
20260901203707 94 227 0.0 2.6 0.00 0.00 0.00 58 1018.1
20260901203201 94 201 0.9 1.7 0.00 0.00 0.00 59 1018.0
20260901202701 93 233 0.9 1.7 0.00 0.00 0.00 60 1018.3
20260901202156 92 264 0.9 2.6 0.00 0.00 0.00 61 1018.2
20260901201652 91 187 0.9 2.6 0.00 0.00 0.00 62 1018.1
20260901201151 91 201 1.7 1.7 0.00 0.00 0.00 63 1018.1
20260901200651 91 208 1.7 3.5 0.00 0.00 0.00 61 1018.2
20260901200146 91 292 0.9 2.6 0.00 0.00 0.00 60 1018.2
20260901195643 91 194 0.9 4.3 0.00 0.00 0.00 61 1018.2